Погода в Дуакаре

Россия / Республика Дагестан     42°03′51″N   47°27′38″E
темп.,
°C
ветер,
м/с
пор.,
м/с
влажн.,
%
обл.,
%
осадки,
мм/ч
давл.,
гПа
погр.,
м
20 июня, вс
вс2000:00+12ююз43640 0.0 102026
03:00+12ююз43521 0.0 101924
06:00+14ююз33591 0.0 101843
09:00+21в2340100 0.0 1016665
12:00+23в354242 0.0 1015745
15:00+22всв44505 0.0 1015668
18:00+19в23763 0.0 1016176
21:00+15ююз33630 0.0 101822
21 июня, пн
пн2100:00+14ююз43530 0.0 101826
03:00+13ююз43510 0.0 101728
06:00+16ююз33610 0.0 101739
09:00+21всв33480 0.0 1015669
12:00+22всв44510 0.0 1015664
15:00+22в45500 0.0 1015762
18:00+18в23690 0.0 1015106
21:00+15ююз33580 0.0 101724
22 июня, вт
вт2200:00+14ююз33480 0.0 101622
03:00+14ююз33380 0.0 101619
06:00+16ююз32510 0.0 101627
09:00+22всв33460 0.0 1015512
12:00+23в45440 0.0 1015767
15:00+23в45410 0.0 1015770
18:00+19в23660 0.0 101692
21:00+14ююз33510 0.0 101820
23 июня, ср
ср2300:00+14ююз43390 0.0 101821
03:00+14ююз43300 0.0 101728
06:00+17ююз33480 0.0 101728
09:00+22св22440 0.0 1015388
12:00+23всв43480 0.0 1015588
15:00+23всв44470 0.0 1015571
18:00+20вюв22690 0.0 101687
21:00+16юз43410 0.0 101823
24 июня, чт
чт2400:00+15юз33330 0.0 101816
03:00+15ююз43310 0.0 101822
06:00+17ююз32490 0.0 101826
09:00+23всв32420 0.0 1015552
12:00+24св43470 0.0 1015602
15:00+23всв44450 0.0 1015636
18:00+19всв22660 0.0 101694
21:00+15юз32510 0.0 101814